SCP
0 0 0 0 0 0 0 0 0 0 0 0 0 0 0 0 0 0 0 0 0 0 0 0 0 0 0 0 0 0 0 0 0 0 0 0 0 0 0 0 0 0 0
0 0 0 0 0 0 0 0 0 0 0 0 0 0 0 0 0 0 0 0 0 0 0 0 0 0 0 0 0 0 0 0 0 0 0 0 0 0 0 0 0 0 0
0 0 0 0 0 0 0 0 0 0 0 0 0 0 0 0 0 0 0 0 0 0 0 0 0 0 0 0 0 0 0 0 0 0 0 0 0 0 0 0 0 0 0
0 0 0 0 0 0 0 0 0 0 0 0 0 0 0 0 0 0 0 0 0 0 0 0 0 0 0 0 -0 -0 -0 -0 -0 -0 0 0 0 0 0 0 0 0 0
0 0 0 0 0 0 0 0 0 0 0 0 0 0 0 0 0 0 0 0 0 0 0 0 0 0 0 0 -0 -0 -0 -0 0 0 0 0 0 0 0 0 0 0 0
0 0 0 0 0 0 0 0 0 0 0 0 0 0 0 0 0 0 0 0 0 0 0 0 0 0 0 -0 -0 -0 -0 0 0 0 0 0 0 0 0 0 0 0 0
0 0 0 0 0 0 0 0 0 0 0 0 0 0 0 0 0 0 0 0 0 0 0 0 0 0 0 -0 -0 -0 0 0 0 0 0 0 0 0 0 0 0 0 0
1 0 0 0 0 0 0 0 0 0 0 0 0 0 0 0 0 0 0 0 0 0 0 0 0 0 0 -0 -0 -0 0 0 0 0 0 0 0 0 0 0 0 0 0
1 1 0 0 0 0 0 0 0 0 0 0 0 0 0 0 0 0 0 0 0 0 0 0 0 0 0 -0 -0 -0 0 0 0 0 0 0 0 0 0 0 0 0 0
1 1 0 0 0 0 0 0 0 0 0 0 0 0 0 0 0 0 0 0 0 0 0 0 0 0 -0 -0 -0 -0 0 0 0 0 0 0 0 0 0 0 0 0 0
1 1 1 0 0 0 0 0 0 0 0 0 0 0 0 0 0 0 0 0 0 0 0 0 0 0 -0 -0 -0 0 0 0 0 0 0 0 0 0 0 0 0 0 0
1 1 1 1 0 0 0 0 0 0 0 0 0 0 0 0 0 0 0 0 0 0 0 0 0 0 0 0 0 0 0 0 0 0 0 0 0 0 0 0 0 0 0
1 1 1 1 1 0 0 0 0 0 0 0 0 0 0 0 0 0 0 0 0 0 0 0 0 0 0 0 0 0 0 0 0 0 0 0 0 0 0 0 0 0 0
2 1 1 1 1 1 1 0 0 0 0 0 0 0 0 0 0 0 0 0 0 0 0 0 0 0 0 0 0 0 0 0 0 0 0 0 0 0 0 0 0 0 0
2 2 2 2 2 1 1 1 0 0 0 0 0 0 0 0 0 0 0 0 0 0 0 0 0 0 0 0 0 0 0 0 0 0 0 0 0 0 0 0 0 0 0
2 2 2 2 2 2 1 1 1 1 0 0 0 0 0 0 0 0 0 0 0 0 0 0 0 0 0 0 0 0 0 0 0 0 0 0 0 0 0 0 0 0 0
3 2 2 2 2 2 1 1 1 1 0 0 0 0 0 0 0 0 0 0 0 0 0 0 0 0 0 0 0 0 0 0 0 0 0 0 0 0 0 0 0 0 0
3 3 2 2 2 1 1 1 1 1 1 1 1 1 0 0 0 0 0 0 0 0 0 0 0 0 0 0 0 0 0 0 0 0 0 0 0 0 0 0 0 0 0
3 2 2 2 1 1 1 1 1 1 1 1 1 1 0 0 0 0 0 0 0 0 0 0 0 0 0 0 0 0 0 0 0 0 0 0 0 0 0 0 0 0 0
2 2 2 2 1 1 1 1 1 1 1 1 0 0 0 0 0 0 0 0 0 0 0 0 0 0 0 0 0 0 0 0 0 0 0 0 0 0 0 0 0 0 0
2 2 1 1 1 1 1 1 1 1 1 0 0 0 0 0 0 0 0 0 0 0 0 0 0 0 0 0 0 0 0 0 0 0 0 0 0 0 0 0 0 0 0
2 1 1 1 1 1 1 1 1 1 0 0 0 0 0 0 0 0 0 0 0 0 0 0 0 0 0 0 0 0 0 0 0 0 0 0 0 0 0 0 0 0 0
1 1 1 1 1 1 1 1 1 1 0 0 0 0 0 0 0 0 0 0 0 0 0 0 0 0 0 0 0 0 0 0 0 0 0 0 0 0 0 0 0 0 0
1 1 1 1 1 1 1 1 0 0 0 0 0 0 0 0 0 0 0 0 0 0 0 0 0 0 0 0 0 0 0 0 0 0 0 0 0 0 0 0 0 0 0
1 1 1 1 1 1 1 1 0 0 0 0 0 0 0 0 0 0 0 0 0 0 0 0 0 0 0 0 0 0 0 0 0 0 0 0 0 0 0 0 0 0 0
1 1 1 1 1 1 1 1 0 0 0 0 0 0 0 0 0 0 0 0 0 0 0 0 0 0 0 0 0 0 0 0 0 0 0 0 0 0 0 0 0 0 0
Wind_Speed
17 16 15 15 15 14 15 15 14 14 14 14 14 13 13 13 13 13 13 13 13 12 12 13 13 13 13 14 14 14 15 15 16 17 17 17 16 14 14 15 16 13 16
20 17 16 15 15 14 14 14 14 14 14 14 13 13 12 12 12 12 12 13 12 12 13 13 13 14 14 14 13 13 13 14 15 16 17 16 15 14 14 15 16 12 16
20 17 16 15 15 15 15 15 14 14 14 13 13 12 12 11 11 12 12 12 12 13 13 13 14 14 14 13 12 12 12 12 13 14 14 10 12 15 16 17 16 16 15
20 17 16 16 16 15 15 15 14 14 14 13 12 12 11 11 11 11 12 12 12 13 13 14 14 14 14 12 11 10 9 9 9 9 7 10 10 14 15 15 15 15 15
18 17 17 17 16 16 15 15 14 14 14 13 12 11 11 11 11 11 11 12 12 13 13 14 14 13 13 11 9 8 6 6 6 5 10 10 9 13 14 14 14 15 14
18 18 17 17 17 16 15 15 14 14 13 13 12 11 11 10 10 11 11 12 12 13 13 13 13 13 12 10 8 6 3 3 2 7 10 9 8 12 14 13 14 14 13
18 17 17 17 17 16 15 15 14 14 13 12 12 11 11 11 10 11 11 12 12 12 13 13 12 12 11 9 6 3 1 1 2 9 9 9 9 12 13 13 13 12 12
18 18 16 17 17 16 15 14 14 13 13 12 12 11 11 11 11 11 11 12 12 12 12 12 12 11 10 7 4 1 2 3 7 11 11 10 10 11 12 12 12 12 12
18 17 15 15 14 15 15 14 13 13 12 12 11 11 11 11 11 11 11 11 12 12 12 11 11 10 9 6 3 1 3 5 3 8 12 8 10 12 12 12 12 12 12
16 16 15 15 13 12 12 13 13 13 12 12 11 12 12 11 11 12 11 10 11 11 11 11 10 10 8 5 3 2 4 5 2 10 9 9 12 12 12 11 11 11 11
14 13 14 15 13 13 12 13 12 12 11 11 10 11 11 8 9 8 11 11 11 11 10 10 10 9 8 5 4 3 4 1 4 8 8 12 12 12 11 11 10 10 11
13 13 10 14 13 13 11 10 8 8 8 7 6 8 5 4 5 8 11 11 11 10 10 9 9 9 6 4 4 4 2 2 5 8 8 14 12 12 11 10 10 10 10
12 11 10 11 11 10 8 8 6 5 6 5 6 6 4 5 5 7 5 6 6 8 6 7 7 5 4 2 2 3 1 2 4 7 9 13 12 11 11 10 9 9 9
11 10 10 9 8 7 8 7 6 5 5 5 5 5 4 2 4 5 4 5 5 4 4 5 3 3 3 3 3 1 2 3 5 6 7 13 11 10 10 10 9 9 8
10 9 9 8 7 6 5 5 6 5 5 5 4 3 4 3 3 4 3 2 4 4 4 3 2 4 3 2 1 3 3 3 7 7 6 12 11 10 10 9 9 9 8
9 9 8 8 8 6 4 3 3 5 4 5 5 5 4 3 4 3 3 2 2 2 3 2 3 3 2 2 1 2 2 3 5 8 7 8 11 10 9 9 9 9 9
10 9 9 9 8 7 5 4 4 4 6 5 4 5 4 4 5 4 3 3 2 3 3 2 3 2 3 3 2 2 2 2 3 6 7 6 7 9 9 9 9 9 9
10 9 9 10 10 7 5 4 3 4 5 4 4 5 4 4 5 3 3 3 3 3 2 2 2 2 2 2 3 2 2 2 3 4 5 6 6 6 8 10 9 9 9
10 10 9 8 10 8 7 4 3 3 4 3 4 4 4 5 5 3 2 3 3 2 2 3 2 1 2 2 3 3 2 3 3 4 4 5 6 6 6 9 10 10 11
10 11 10 9 9 8 5 4 2 3 3 4 4 4 5 4 5 3 3 3 3 2 2 1 3 2 1 1 2 3 2 3 3 3 4 4 5 7 7 8 7 8 12
11 11 10 9 9 7 5 5 4 4 3 3 4 6 5 4 5 3 3 4 2 2 3 3 2 3 2 1 1 1 1 3 3 3 3 3 4 5 6 8 7 5 6
11 11 10 9 9 8 6 4 3 4 3 3 3 5 6 5 5 5 4 3 3 2 2 1 1 1 2 3 2 1 1 1 2 4 3 4 4 4 5 7 6 6 6
11 11 10 9 9 9 8 5 4 2 2 3 4 4 5 6 5 3 5 3 3 3 3 3 3 3 1 1 2 1 1 1 1 1 3 3 3 3 3 4 6 6 6
11 10 10 9 9 8 8 7 7 5 5 4 4 4 5 5 5 5 4 4 2 2 4 4 4 2 2 1 1 1 1 2 1 1 2 2 4 4 4 4 5 6 5
11 10 10 9 9 9 8 8 7 6 4 4 4 5 5 5 5 5 5 4 3 2 4 3 3 2 1 2 2 2 2 2 2 2 2 2 2 3 4 4 2 3 5
10 10 10 10 9 8 8 8 7 7 6 5 5 6 5 4 4 5 5 4 4 3 3 3 2 3 2 1 1 1 1 1 2 1 2 2 2 2 3 3 2 3 3
Wind_Direction
122 125 126 124 126 128 129 126 121 117 113 109 104 100 97 94 93 92 93 94 95 96 97 98 97 95 93 92 90 92 94 96 95 96 95 93 92 92 97 102 98 95 98
122 126 126 125 125 127 128 126 123 120 117 114 110 106 102 100 98 97 97 96 96 97 98 99 100 99 97 97 97 99 102 103 105 104 100 92 89 88 88 93 94 100 101
122 128 128 125 124 125 126 126 124 122 120 118 115 111 107 105 103 102 100 99 99 101 102 102 103 102 101 101 103 106 110 114 117 119 110 98 89 87 90 95 100 100 100
127 133 130 128 126 126 126 127 126 124 123 122 119 115 112 109 107 106 103 103 102 104 105 105 105 104 104 105 107 111 116 120 126 133 111 101 95 93 94 98 102 102 102
127 127 127 132 130 129 128 128 127 126 126 125 122 118 116 114 112 108 106 105 106 107 107 107 106 106 107 108 110 113 117 121 133 116 88 88 90 99 98 99 103 103 103
128 127 132 134 132 131 130 130 130 130 129 127 125 123 120 118 115 110 108 108 108 109 109 110 109 109 110 112 115 116 115 121 138 104 100 100 99 102 103 103 103 103 103
130 129 134 136 135 134 134 133 133 132 130 128 127 125 123 120 115 114 112 112 112 112 113 113 113 113 114 116 119 121 98 64 124 104 100 98 103 107 107 107 107 107 106
128 130 134 137 138 137 137 136 134 133 133 132 130 128 125 122 119 117 116 115 116 116 116 116 117 118 118 120 127 134 321 307 109 108 103 104 111 110 110 111 110 109 108
131 134 141 143 142 141 140 139 139 137 136 135 133 132 130 128 126 123 121 121 121 121 122 123 123 123 125 131 150 245 302 322 87 116 110 111 117 117 115 114 115 113 110
133 138 148 149 145 146 143 143 142 141 141 140 140 139 138 135 133 132 128 126 126 127 129 129 129 130 135 146 179 260 310 320 118 111 109 119 124 123 121 118 118 117 115
135 142 155 149 151 152 147 143 144 143 144 145 148 148 151 152 144 147 127 132 133 134 136 138 141 144 151 168 202 254 287 248 97 101 108 124 128 127 127 124 122 122 120
145 151 155 151 156 157 148 144 152 156 153 165 155 161 175 149 135 126 133 138 141 142 145 152 157 164 178 181 197 229 254 164 107 108 120 131 130 131 131 131 128 127 126
154 150 150 153 156 152 139 152 159 155 155 171 160 168 164 142 137 133 142 145 151 159 165 160 178 194 194 176 170 214 223 101 102 111 129 134 135 138 139 139 139 136 135
151 150 148 151 148 144 146 152 152 151 161 159 160 175 157 154 144 143 149 160 167 176 170 178 190 176 154 159 172 175 88 87 103 112 136 139 141 145 147 148 149 148 146
150 151 148 150 135 129 132 155 158 150 159 152 154 179 158 154 138 137 130 155 182 162 170 184 164 134 143 159 154 113 97 111 129 129 136 148 148 152 156 158 159 157 158
153 151 143 142 136 133 141 166 142 149 153 154 161 163 170 141 126 136 141 169 172 144 146 150 134 130 150 133 107 113 122 116 116 133 142 152 157 162 167 170 169 170 171
154 153 149 149 149 147 159 179 158 157 160 162 153 145 157 142 138 147 147 178 147 121 120 135 142 149 162 158 140 127 118 111 125 127 144 159 165 172 176 179 178 180 184
153 156 164 164 154 155 169 191 165 169 151 148 143 141 155 146 149 153 157 159 140 138 160 157 161 158 166 147 145 155 138 135 138 145 159 165 165 172 184 188 186 188 192
154 155 166 155 154 166 173 179 181 152 145 146 139 147 160 158 152 160 141 128 164 155 169 187 152 163 160 155 164 165 167 163 166 183 175 170 168 166 172 186 193 195 201
152 156 164 163 158 165 170 168 176 158 159 153 152 155 163 164 161 168 150 154 187 170 159 115 124 110 113 195 216 159 172 169 178 183 189 179 173 180 174 174 184 202 209
155 158 164 167 164 165 168 168 169 169 176 167 163 158 161 173 168 171 152 155 191 154 154 155 154 163 188 189 161 151 197 188 184 180 191 179 183 186 168 170 185 187 197
161 163 164 170 169 172 171 166 168 169 178 171 159 152 165 178 180 174 164 171 174 142 149 162 152 180 207 190 179 145 202 211 226 197 182 190 186 181 183 187 186 180 189
166 170 173 174 172 177 169 164 161 151 168 163 157 161 181 184 186 183 167 184 174 173 169 187 183 200 227 207 184 170 167 191 209 220 201 182 179 181 196 190 192 186 193
172 172 172 173 174 173 170 170 169 174 180 178 167 167 185 190 185 186 176 178 174 182 165 193 188 195 199 228 198 193 162 127 150 191 240 193 188 190 204 209 200 184 191
170 168 168 168 171 173 177 175 179 183 183 181 169 167 182 187 194 189 176 175 189 203 171 175 146 192 212 227 223 197 188 178 212 183 206 208 207 197 195 208 199 183 189
167 165 167 168 171 175 180 184 186 187 181 179 178 174 184 182 194 195 181 180 188 199 169 159 156 193 231 266 285 260 189 187 218 209 198 206 211 211 188 183 197 198 185